| time (UTC) | temp F | wind direction | speed MPH | gust MPH | rain 1hr in | rain 24hr in | rain mn in | humidity % | barometer mb |
| 20260506033517 | 59 | 220 | 5.0 | 10.0 | 0.00 | 0.00 | 0.00 | 48 | 1017.1 |
| 20260506033050 | 59 | 228 | 6.0 | 11.0 | 0.00 | 0.00 | 0.00 | 49 | 1017.1 |
| 20260506032621 | 59 | 248 | 5.0 | 11.0 | 0.00 | 0.00 | 0.00 | 47 | 1017.1 |
| 20260506032017 | 60 | 240 | 8.0 | 11.0 | 0.00 | 0.00 | 0.00 | 47 | 1017.1 |
| 20260506032011 | 59 | 232 | 7.0 | 11.0 | 0.00 | 0.00 | 0.00 | 47 | 1017.0 |
| 20260506031020 | 60 | 237 | 5.0 | 9.0 | 0.00 | 0.00 | 0.00 | 47 | 1017.0 |
| 20260506030524 | 60 | 232 | 5.0 | 10.0 | 0.00 | 0.00 | 0.00 | 46 | 1017.0 |
| 20260506025529 | 61 | 254 | 6.0 | 12.0 | 0.00 | 0.00 | 0.00 | 44 | 1017.1 |
| 20260506025019 | 61 | 261 | 3.0 | 8.0 | 0.00 | 0.00 | 0.00 | 44 | 1017.0 |
| 20260506024553 | 61 | 246 | 3.0 | 7.0 | 0.00 | 0.00 | 0.00 | 44 | 1017.1 |
| 20260506024015 | 62 | 244 | 4.0 | 7.0 | 0.00 | 0.00 | 0.00 | 43 | 1017.2 |
| 20260506023515 | 62 | 254 | 3.0 | 8.0 | 0.00 | 0.00 | 0.00 | 42 | 1017.1 |
| 20260506023047 | 62 | 274 | 3.0 | 7.0 | 0.00 | 0.00 | 0.00 | 41 | 1017.1 |
| 20260506022517 | 63 | 220 | 4.0 | 6.0 | 0.00 | 0.00 | 0.00 | 41 | 1017.1 |
| 20260506022017 | 63 | 240 | 2.0 | 6.0 | 0.00 | 0.00 | 0.00 | 41 | 1017.1 |
| 20260506021547 | 64 | 271 | 3.0 | 6.0 | 0.00 | 0.00 | 0.00 | 40 | 1017.2 |
| 20260506021017 | 64 | 289 | 1.0 | 4.0 | 0.00 | 0.00 | 0.00 | 40 | 1017.3 |
| 20260506020517 | 65 | 269 | 1.0 | 4.0 | 0.00 | 0.00 | 0.00 | 39 | 1017.2 |
| 20260506020313 | 65 | 223 | 1.0 | 4.0 | 0.00 | 0.00 | 0.00 | 38 | 1017.3 |
| 20260506015517 | 66 | 244 | 0.0 | 6.0 | 0.00 | 0.00 | 0.00 | 37 | 1017.4 |
| 20260506015138 | 66 | 209 | 0.0 | 3.0 | 0.00 | 0.00 | 0.00 | 37 | 1017.4 |
| 20260506014558 | 66 | 337 | 1.0 | 3.0 | 0.00 | 0.00 | 0.00 | 37 | 1017.4 |
| 20260506014015 | 66 | 333 | 0.0 | 5.0 | 0.00 | 0.00 | 0.00 | 37 | 1017.5 |
| 20260506013515 | 66 | 332 | 0.0 | 5.0 | 0.00 | 0.00 | 0.00 | 36 | 1017.5 |
| 20260506013311 | 66 | 329 | 1.0 | 6.0 | 0.00 | 0.00 | 0.00 | 38 | 1017.5 |
| 20260506012516 | 66 | 346 | 0.0 | 6.0 | 0.00 | 0.00 | 0.00 | 36 | 1017.6 |
| 20260506012016 | 66 | 9 | 1.0 | 3.0 | 0.00 | 0.00 | 0.00 | 38 | 1017.4 |
| 20260506011551 | 67 | 79 | 1.0 | 2.0 | 0.00 | 0.00 | 0.00 | 36 | 1017.5 |
| 20260506011020 | 67 | 33 | 0.0 | 2.0 | 0.00 | 0.00 | 0.00 | 39 | 1017.6 |
| 20260506010518 | 67 | 94 | 0.0 | 2.0 | 0.00 | 0.00 | 0.00 | 39 | 1017.6 |
| 20260506010105 | 66 | 94 | 0.0 | 2.0 | 0.00 | 0.00 | 0.00 | 40 | 1017.6 |
| 20260506005515 | 66 | 94 | 1.0 | 3.0 | 0.00 | 0.00 | 0.00 | 40 | 1017.6 |
| 20260506005015 | 66 | 355 | 0.0 | 4.0 | 0.00 | 0.00 | 0.00 | 43 | 1017.6 |
| 20260506004553 | 65 | 360 | 1.0 | 4.0 | 0.00 | 0.00 | 0.00 | 44 | 1017.5 |
| 20260506004015 | 65 | 121 | 1.0 | 4.0 | 0.00 | 0.00 | 0.00 | 43 | 1017.5 |
| 20260506003515 | 65 | 121 | 0.0 | 5.0 | 0.00 | 0.00 | 0.00 | 44 | 1017.6 |
| 20260506003049 | 65 | 138 | 1.0 | 4.0 | 0.00 | 0.00 | 0.00 | 43 | 1017.5 |
| 20260506002516 | 65 | 91 | 1.0 | 4.0 | 0.00 | 0.00 | 0.00 | 43 | 1017.6 |
| 20260506002017 | 65 | 92 | 1.0 | 3.0 | 0.00 | 0.00 | 0.00 | 43 | 1017.7 |
| 20260506001602 | 65 | 103 | 1.0 | 4.0 | 0.00 | 0.00 | 0.00 | 43 | 1017.7 |
| 20260506001017 | 66 | 85 | 1.0 | 4.0 | 0.00 | 0.00 | 0.00 | 43 | 1017.4 |
| 20260506000524 | 66 | 98 | 2.0 | 6.0 | 0.00 | 0.00 | 0.00 | 43 | 1017.6 |
| 20260506000059 | 66 | 88 | 1.0 | 6.0 | 0.00 | 0.00 | 0.00 | 41 | 1017.8 |
| 20260505235520 | 67 | 57 | 2.0 | 5.0 | 0.00 | 0.00 | 0.00 | 40 | 1017.9 |
| 20260505235021 | 67 | 105 | 2.0 | 6.0 | 0.00 | 0.00 | 0.00 | 40 | 1017.9 |
| 20260505234554 | 67 | 109 | 1.0 | 6.0 | 0.00 | 0.00 | 0.00 | 41 | 1017.9 |
| 20260505234024 | 67 | 57 | 1.0 | 6.0 | 0.00 | 0.00 | 0.00 | 39 | 1017.9 |
| 20260505233521 | 67 | 92 | 2.0 | 6.0 | 0.00 | 0.00 | 0.00 | 39 | 1017.9 |
| 20260505233133 | 67 | 96 | 2.0 | 6.0 | 0.00 | 0.00 | 0.00 | 40 | 1017.9 |
| 20260505232521 | 68 | 131 | 2.0 | 6.0 | 0.00 | 0.00 | 0.00 | 40 | 1017.9 |
| 20260505232021 | 68 | 94 | 2.0 | 8.0 | 0.00 | 0.00 | 0.00 | 39 | 1017.9 |
| 20260505231559 | 68 | 111 | 2.0 | 8.0 | 0.00 | 0.00 | 0.00 | 39 | 1017.9 |
| 20260505231020 | 68 | 100 | 2.0 | 5.0 | 0.00 | 0.00 | 0.00 | 39 | 1017.9 |
| 20260505230526 | 67 | 98 | 2.0 | 7.0 | 0.00 | 0.00 | 0.00 | 40 | 1018.1 |
| 20260505230124 | 67 | 100 | 3.0 | 7.0 | 0.00 | 0.00 | 0.00 | 41 | 1018.0 |
| 20260505225518 | 67 | 119 | 1.0 | 8.0 | 0.00 | 0.00 | 0.00 | 41 | 1018.1 |
| 20260505225024 | 67 | 85 | 3.0 | 7.0 | 0.00 | 0.00 | 0.00 | 42 | 1018.1 |
| 20260505224549 | 67 | 139 | 2.0 | 7.0 | 0.00 | 0.00 | 0.00 | 41 | 1018.1 |
| 20260505224015 | 67 | 78 | 2.0 | 10.0 | 0.00 | 0.00 | 0.00 | 40 | 1018.3 |
| 20260505223529 | 67 | 113 | 3.0 | 10.0 | 0.00 | 0.00 | 0.00 | 42 | 1018.2 |
| 20260505223044 | 67 | 134 | 2.0 | 7.0 | 0.00 | 0.00 | 0.00 | 41 | 1018.3 |
| 20260505222519 | 67 | 116 | 2.0 | 8.0 | 0.00 | 0.00 | 0.00 | 41 | 1018.3 |
| 20260505222015 | 67 | 123 | 3.0 | 8.0 | 0.00 | 0.00 | 0.00 | 42 | 1018.4 |
| 20260505221533 | 67 | 127 | 3.0 | 7.0 | 0.00 | 0.00 | 0.00 | 41 | 1018.4 |
| 20260505221012 | 67 | 94 | 2.0 | 7.0 | 0.00 | 0.00 | 0.00 | 41 | 1018.4 |
| 20260505220514 | 67 | 89 | 2.0 | 7.0 | 0.00 | 0.00 | 0.00 | 41 | 1018.4 |
| 20260505220041 | 67 | 83 | 3.0 | 9.0 | 0.00 | 0.00 | 0.00 | 44 | 1018.5 |
| 20260505215516 | 67 | 101 | 4.0 | 9.0 | 0.00 | 0.00 | 0.00 | 41 | 1018.6 |
| 20260505215017 | 67 | 98 | 3.0 | 12.0 | 0.00 | 0.00 | 0.00 | 42 | 1018.5 |
| 20260505214536 | 67 | 98 | 3.0 | 12.0 | 0.00 | 0.00 | 0.00 | 44 | 1018.6 |
| 20260505214013 | 66 | 111 | 3.0 | 9.0 | 0.00 | 0.00 | 0.00 | 43 | 1018.6 |
| 20260505213520 | 67 | 98 | 3.0 | 9.0 | 0.00 | 0.00 | 0.00 | 42 | 1018.6 |
| 20260505213043 | 67 | 87 | 3.0 | 7.0 | 0.00 | 0.00 | 0.00 | 43 | 1018.7 |
| 20260505212516 | 67 | 46 | 4.0 | 7.0 | 0.00 | 0.00 | 0.00 | 43 | 1018.7 |
| 20260505212016 | 66 | 46 | 1.0 | 6.0 | 0.00 | 0.00 | 0.00 | 41 | 1018.8 |
| 20260505211541 | 66 | 92 | 2.0 | 10.0 | 0.00 | 0.00 | 0.00 | 40 | 1018.8 |
| 20260505211017 | 66 | 88 | 3.0 | 11.0 | 0.00 | 0.00 | 0.00 | 42 | 1018.8 |
| 20260505210518 | 67 | 83 | 3.0 | 6.0 | 0.00 | 0.00 | 0.00 | 42 | 1018.9 |
| 20260505210042 | 66 | 55 | 2.0 | 7.0 | 0.00 | 0.00 | 0.00 | 41 | 1018.9 |
| 20260505205534 | 66 | 74 | 3.0 | 7.0 | 0.00 | 0.00 | 0.00 | 43 | 1019.0 |
| 20260505205017 | 66 | 105 | 3.0 | 7.0 | 0.00 | 0.00 | 0.00 | 44 | 1019.0 |
| 20260505204555 | 66 | 121 | 3.0 | 9.0 | 0.00 | 0.00 | 0.00 | 42 | 1019.1 |
| 20260505204022 | 66 | 40 | 4.0 | 9.0 | 0.00 | 0.00 | 0.00 | 41 | 1019.2 |
| 20260505203521 | 66 | 269 | 2.0 | 8.0 | 0.00 | 0.00 | 0.00 | 41 | 1019.2 |
| 20260505203058 | 66 | 96 | 4.0 | 8.0 | 0.00 | 0.00 | 0.00 | 40 | 1019.1 |
| 20260505202516 | 66 | 76 | 4.0 | 8.0 | 0.00 | 0.00 | 0.00 | 41 | 1019.1 |
| 20260505202015 | 65 | 347 | 4.0 | 9.0 | 0.00 | 0.00 | 0.00 | 44 | 1018.9 |
| 20260505201537 | 65 | 111 | 3.0 | 9.0 | 0.00 | 0.00 | 0.00 | 42 | 1018.9 |
| 20260505201016 | 66 | 65 | 2.0 | 11.0 | 0.00 | 0.00 | 0.00 | 42 | 1018.9 |
| 20260505200516 | 66 | 72 | 4.0 | 11.0 | 0.00 | 0.00 | 0.00 | 42 | 1019.1 |
| 20260505200044 | 66 | 65 | 4.0 | 8.0 | 0.00 | 0.00 | 0.00 | 43 | 1019.1 |
| 20260505195516 | 65 | 142 | 4.0 | 9.0 | 0.00 | 0.00 | 0.00 | 44 | 1019.3 |
| 20260505195014 | 65 | 107 | 4.0 | 9.0 | 0.00 | 0.00 | 0.00 | 41 | 1019.2 |
| 20260505194552 | 65 | 102 | 3.0 | 8.0 | 0.00 | 0.00 | 0.00 | 40 | 1019.3 |
| 20260505194019 | 65 | 82 | 3.0 | 10.0 | 0.00 | 0.00 | 0.00 | 40 | 1019.1 |
| 20260505193520 | 65 | 121 | 3.0 | 7.0 | 0.00 | 0.00 | 0.00 | 42 | 1019.1 |
| 20260505193110 | 65 | 132 | 4.0 | 10.0 | 0.00 | 0.00 | 0.00 | 44 | 1019.1 |
| 20260505192516 | 65 | 101 | 6.0 | 10.0 | 0.00 | 0.00 | 0.00 | 43 | 1018.9 |
| 20260505192017 | 65 | 53 | 2.0 | 9.0 | 0.00 | 0.00 | 0.00 | 41 | 1019.1 |
| 20260505191559 | 64 | 112 | 4.0 | 9.0 | 0.00 | 0.00 | 0.00 | 45 | 1019.0 |
| 20260505191018 | 65 | 88 | 5.0 | 10.0 | 0.00 | 0.00 | 0.00 | 40 | 1019.1 |
| 20260505190515 | 65 | 137 | 4.0 | 10.0 | 0.00 | 0.00 | 0.00 | 41 | 1019.0 |
| 20260505190053 | 65 | 106 | 3.0 | 9.0 | 0.00 | 0.00 | 0.00 | 43 | 1018.9 |
| 20260505185519 | 65 | 111 | 3.0 | 9.0 | 0.00 | 0.00 | 0.00 | 43 | 1019.1 |
| 20260505185029 | 65 | 104 | 4.0 | 9.0 | 0.00 | 0.00 | 0.00 | 42 | 1018.9 |
| 20260505184535 | 65 | 107 | 4.0 | 8.0 | 0.00 | 0.00 | 0.00 | 43 | 1019.0 |
| 20260505184114 | 65 | 84 | 2.0 | 8.0 | 0.00 | 0.00 | 0.00 | 43 | 1019.3 |
| 20260505183515 | 65 | 98 | 3.0 | 8.0 | 0.00 | 0.00 | 0.00 | 45 | 1019.3 |
| 20260505183054 | 64 | 74 | 3.0 | 8.0 | 0.00 | 0.00 | 0.00 | 44 | 1019.2 |
| 20260505182518 | 64 | 124 | 3.0 | 6.0 | 0.00 | 0.00 | 0.00 | 46 | 1019.2 |
| 20260505182029 | 64 | 73 | 3.0 | 10.0 | 0.00 | 0.00 | 0.00 | 43 | 1019.1 |
| 20260505181552 | 64 | 107 | 5.0 | 10.0 | 0.00 | 0.00 | 0.00 | 46 | 1019.1 |
| 20260505181016 | 63 | 101 | 3.0 | 8.0 | 0.00 | 0.00 | 0.00 | 46 | 1019.1 |
| 20260505180524 | 63 | 84 | 3.0 | 8.0 | 0.00 | 0.00 | 0.00 | 46 | 1018.9 |
| 20260505180053 | 63 | 99 | 3.0 | 7.0 | 0.00 | 0.00 | 0.00 | 45 | 1019.1 |
| 20260505175517 | 63 | 84 | 2.0 | 8.0 | 0.00 | 0.00 | 0.00 | 46 | 1018.9 |
| 20260505175016 | 63 | 84 | 3.0 | 8.0 | 0.00 | 0.00 | 0.00 | 48 | 1018.9 |
| 20260505174543 | 63 | 104 | 2.0 | 8.0 | 0.00 | 0.00 | 0.00 | 45 | 1019.1 |
| 20260505174013 | 63 | 97 | 4.0 | 8.0 | 0.00 | 0.00 | 0.00 | 46 | 1019.0 |
| 20260505173515 | 62 | 105 | 3.0 | 8.0 | 0.00 | 0.00 | 0.00 | 45 | 1019.1 |
| 20260505173046 | 62 | 94 | 4.0 | 8.0 | 0.00 | 0.00 | 0.00 | 47 | 1019.1 |
| 20260505172514 | 62 | 107 | 3.0 | 9.0 | 0.00 | 0.00 | 0.00 | 46 | 1018.9 |
| 20260505172014 | 62 | 155 | 4.0 | 9.0 | 0.00 | 0.00 | 0.00 | 45 | 1018.8 |
| 20260505171550 | 62 | 80 | 3.0 | 10.0 | 0.00 | 0.00 | 0.00 | 45 | 1018.9 |
| 20260505171016 | 62 | 101 | 4.0 | 10.0 | 0.00 | 0.00 | 0.00 | 46 | 1018.8 |
| 20260505170516 | 62 | 105 | 3.0 | 7.0 | 0.00 | 0.00 | 0.00 | 47 | 1018.9 |
| 20260505170042 | 62 | 86 | 2.0 | 7.0 | 0.00 | 0.00 | 0.00 | 47 | 1018.8 |
| 20260505165519 | 62 | 99 | 3.0 | 8.0 | 0.00 | 0.00 | 0.00 | 51 | 1018.8 |
| 20260505165019 | 62 | 133 | 3.0 | 8.0 | 0.00 | 0.00 | 0.00 | 47 | 1018.8 |
| 20260505164549 | 62 | 136 | 3.0 | 8.0 | 0.00 | 0.00 | 0.00 | 46 | 1018.8 |
| 20260505164017 | 61 | 141 | 2.0 | 8.0 | 0.00 | 0.00 | 0.00 | 48 | 1018.8 |
| 20260505163519 | 61 | 142 | 2.0 | 9.0 | 0.00 | 0.00 | 0.00 | 43 | 1018.8 |
| 20260505163058 | 61 | 105 | 3.0 | 9.0 | 0.00 | 0.00 | 0.00 | 45 | 1018.7 |
| 20260505162527 | 61 | 113 | 3.0 | 7.0 | 0.00 | 0.00 | 0.00 | 45 | 1018.8 |
| 20260505162017 | 61 | 137 | 3.0 | 7.0 | 0.00 | 0.00 | 0.00 | 45 | 1018.8 |
| 20260505161547 | 60 | 159 | 2.0 | 8.0 | 0.00 | 0.00 | 0.00 | 46 | 1018.7 |
| 20260505161018 | 61 | 134 | 3.0 | 8.0 | 0.00 | 0.00 | 0.00 | 47 | 1018.6 |
| 20260505160516 | 61 | 146 | 3.0 | 7.0 | 0.00 | 0.00 | 0.00 | 44 | 1018.6 |
| 20260505160415 | 61 | 107 | 3.0 | 7.0 | 0.00 | 0.00 | 0.00 | 47 | 1018.7 |
| 20260505153102 | 60 | 94 | 2.0 | 7.0 | 0.00 | 0.00 | 0.00 | 52 | 1018.5 |
| 20260505152515 | 60 | 74 | 2.0 | 6.0 | 0.00 | 0.00 | 0.00 | 52 | 1018.6 |
| 20260505152024 | 60 | 65 | 2.0 | 5.0 | 0.00 | 0.00 | 0.00 | 51 | 1018.6 |
| 20260505151540 | 59 | 57 | 2.0 | 6.0 | 0.00 | 0.00 | 0.00 | 52 | 1018.4 |
| 20260505151016 | 60 | 65 | 2.0 | 6.0 | 0.00 | 0.00 | 0.00 | 52 | 1018.4 |
| 20260505150515 | 60 | 61 | 1.0 | 5.0 | 0.00 | 0.00 | 0.00 | 52 | 1018.4 |
| 20260505140515 | 59 | 87 | 1.0 | 4.0 | 0.00 | 0.00 | 0.00 | 50 | 1018.0 |
| 20260505140112 | 59 | 94 | 1.0 | 3.0 | 0.00 | 0.00 | 0.00 | 52 | 1017.9 |
| 20260505125017 | 55 | 309 | 1.0 | 4.0 | 0.00 | 0.00 | 0.00 | 50 | 1017.5 |
| 20260505124952 | 55 | 309 | 1.0 | 4.0 | 0.00 | 0.00 | 0.00 | 50 | 1017.5 |
| 20260505124020 | 54 | 270 | 1.0 | 3.0 | 0.00 | 0.00 | 0.00 | 51 | 1017.5 |
| 20260505123520 | 54 | 268 | 1.0 | 3.0 | 0.00 | 0.00 | 0.00 | 51 | 1017.4 |
| 20260505123057 | 54 | 259 | 2.0 | 3.0 | 0.00 | 0.00 | 0.00 | 51 | 1017.4 |
| 20260505122519 | 55 | 259 | 1.0 | 2.0 | 0.00 | 0.00 | 0.00 | 50 | 1017.4 |
| 20260505122016 | 55 | 262 | 1.0 | 2.0 | 0.00 | 0.00 | 0.00 | 50 | 1017.4 |
| 20260505121557 | 55 | 262 | 1.0 | 2.0 | 0.00 | 0.00 | 0.00 | 50 | 1017.4 |
| 20260505121016 | 55 | 267 | 1.0 | 3.0 | 0.00 | 0.00 | 0.00 | 50 | 1017.4 |
| 20260505120516 | 55 | 267 | 1.0 | 3.0 | 0.00 | 0.00 | 0.00 | 49 | 1017.4 |
| 20260505120113 | 55 | 271 | 1.0 | 2.0 | 0.00 | 0.00 | 0.00 | 48 | 1017.3 |
| 20260505115517 | 55 | 271 | 1.0 | 2.0 | 0.00 | 0.00 | 0.00 | 48 | 1017.4 |
| 20260505115016 | 55 | 271 | 0.0 | 2.0 | 0.00 | 0.00 | 0.00 | 48 | 1017.4 |
| 20260505114604 | 55 | 271 | 0.0 | 2.0 | 0.00 | 0.00 | 0.00 | 48 | 1017.4 |
| 20260505114019 | 55 | 271 | 1.0 | 3.0 | 0.00 | 0.00 | 0.00 | 49 | 1017.4 |
| 20260505113653 | 55 | 273 | 1.0 | 3.0 | 0.00 | 0.00 | 0.00 | 48 | 1017.4 |
| 20260505113102 | 55 | 288 | 0.0 | 2.0 | 0.00 | 0.00 | 0.00 | 48 | 1017.4 |
| 20260505112517 | 55 | 288 | 1.0 | 2.0 | 0.00 | 0.00 | 0.00 | 48 | 1017.4 |
| 20260505112015 | 55 | 288 | 1.0 | 2.0 | 0.00 | 0.00 | 0.00 | 48 | 1017.4 |
| 20260505111536 | 55 | 288 | 0.0 | 2.0 | 0.00 | 0.00 | 0.00 | 48 | 1017.3 |
| 20260505111015 | 55 | 288 | 0.0 | 3.0 | 0.00 | 0.00 | 0.00 | 48 | 1017.2 |
| 20260505110518 | 55 | 246 | 2.0 | 3.0 | 0.00 | 0.00 | 0.00 | 48 | 1017.2 |
| 20260505102016 | 56 | 279 | 0.0 | 2.0 | 0.00 | 0.00 | 0.00 | 48 | 1017.0 |
| 20260505101538 | 56 | 279 | 0.0 | 2.0 | 0.00 | 0.00 | 0.00 | 48 | 1017.0 |
| 20260505101015 | 56 | 297 | 1.0 | 3.0 | 0.00 | 0.00 | 0.00 | 49 | 1017.1 |
| 20260505100516 | 56 | 296 | 1.0 | 6.0 | 0.00 | 0.00 | 0.00 | 47 | 1017.1 |
| 20260505100034 | 56 | 88 | 1.0 | 6.0 | 0.00 | 0.00 | 0.00 | 46 | 1017.0 |
| 20260505095513 | 56 | 324 | 0.0 | 6.0 | 0.00 | 0.00 | 0.00 | 47 | 1017.1 |
| 20260505093028 | 56 | 319 | 0.0 | 4.0 | 0.00 | 0.00 | 0.00 | 47 | 1017.0 |
| 20260505092510 | 56 | 342 | 1.0 | 4.0 | 0.00 | 0.00 | 0.00 | 47 | 1016.9 |
| 20260505092014 | 56 | 288 | 1.0 | 2.0 | 0.00 | 0.00 | 0.00 | 47 | 1016.8 |
| 20260505091532 | 56 | 281 | 0.0 | 2.0 | 0.00 | 0.00 | 0.00 | 47 | 1016.8 |
| 20260505091011 | 56 | 277 | 1.0 | 2.0 | 0.00 | 0.00 | 0.00 | 47 | 1016.8 |
| 20260505090509 | 56 | 277 | 0.0 | 2.0 | 0.00 | 0.00 | 0.00 | 47 | 1016.8 |
| 20260505090027 | 56 | 277 | 0.0 | 2.0 | 0.00 | 0.00 | 0.00 | 48 | 1016.8 |
| 20260505085511 | 56 | 277 | 1.0 | 3.0 | 0.00 | 0.00 | 0.00 | 48 | 1016.9 |
| 20260505085009 | 56 | 280 | 1.0 | 3.0 | 0.00 | 0.00 | 0.00 | 48 | 1016.8 |
| 20260505084543 | 56 | 272 | 1.0 | 3.0 | 0.00 | 0.00 | 0.00 | 49 | 1016.8 |
| 20260505084009 | 56 | 265 | 1.0 | 3.0 | 0.00 | 0.00 | 0.00 | 49 | 1016.8 |
| 20260505083507 | 56 | 307 | 1.0 | 3.0 | 0.00 | 0.00 | 0.00 | 49 | 1016.8 |
| 20260505083043 | 56 | 271 | 0.0 | 4.0 | 0.00 | 0.00 | 0.00 | 50 | 1016.8 |
| 20260505082510 | 56 | 269 | 1.0 | 3.0 | 0.00 | 0.00 | 0.00 | 50 | 1016.9 |
| 20260505082011 | 56 | 260 | 1.0 | 2.0 | 0.00 | 0.00 | 0.00 | 51 | 1016.9 |
| 20260505081541 | 56 | 287 | 0.0 | 2.0 | 0.00 | 0.00 | 0.00 | 51 | 1017.0 |
| 20260505081014 | 56 | 273 | 1.0 | 2.0 | 0.00 | 0.00 | 0.00 | 51 | 1016.9 |
| 20260505080512 | 56 | 273 | 0.0 | 3.0 | 0.00 | 0.00 | 0.00 | 51 | 1016.9 |
| 20260505080039 | 56 | 275 | 2.0 | 3.0 | 0.00 | 0.00 | 0.00 | 52 | 1016.9 |
| 20260505075508 | 56 | 279 | 2.0 | 3.0 | 0.00 | 0.00 | 0.00 | 51 | 1016.9 |
| 20260505075011 | 56 | 249 | 2.0 | 3.0 | 0.00 | 0.00 | 0.00 | 51 | 1016.9 |
| 20260505074527 | 56 | 311 | 1.0 | 3.0 | 0.00 | 0.00 | 0.00 | 50 | 1017.0 |
| 20260505074012 | 56 | 273 | 1.0 | 4.0 | 0.00 | 0.00 | 0.00 | 50 | 1016.8 |
| 20260505073508 | 56 | 265 | 2.0 | 4.0 | 0.00 | 0.00 | 0.00 | 50 | 1016.8 |
| 20260505073036 | 56 | 250 | 2.0 | 3.0 | 0.00 | 0.00 | 0.00 | 50 | 1016.8 |
| 20260505072513 | 57 | 252 | 2.0 | 4.0 | 0.00 | 0.00 | 0.00 | 49 | 1016.7 |
| 20260505072011 | 57 | 263 | 2.0 | 4.0 | 0.00 | 0.00 | 0.00 | 49 | 1016.8 |
| 20260505071541 | 57 | 254 | 2.0 | 3.0 | 0.00 | 0.00 | 0.00 | 49 | 1016.7 |
| 20260505071009 | 57 | 257 | 2.0 | 3.0 | 0.00 | 0.00 | 0.00 | 49 | 1016.6 |
| 20260505070515 | 57 | 252 | 2.0 | 3.0 | 0.00 | 0.00 | 0.00 | 48 | 1016.7 |
| 20260505070039 | 57 | 254 | 2.0 | 4.0 | 0.00 | 0.00 | 0.00 | 48 | 1016.8 |
| 20260505065511 | 57 | 245 | 2.0 | 4.0 | 0.00 | 0.00 | 0.00 | 48 | 1016.6 |
| 20260505065011 | 57 | 268 | 2.0 | 4.0 | 0.00 | 0.00 | 0.00 | 48 | 1016.6 |
| 20260505064528 | 57 | 242 | 2.0 | 5.0 | 0.00 | 0.00 | 0.00 | 48 | 1016.6 |
| 20260505064011 | 57 | 240 | 3.0 | 5.0 | 0.00 | 0.00 | 0.00 | 49 | 1016.6 |
| 20260505063508 | 57 | 244 | 3.0 | 4.0 | 0.00 | 0.00 | 0.00 | 48 | 1016.6 |
| 20260505063037 | 57 | 242 | 3.0 | 4.0 | 0.00 | 0.00 | 0.00 | 49 | 1016.6 |
| 20260505062509 | 57 | 248 | 2.0 | 4.0 | 0.00 | 0.00 | 0.00 | 48 | 1016.6 |
| 20260505062009 | 58 | 242 | 2.0 | 4.0 | 0.00 | 0.00 | 0.00 | 48 | 1016.6 |
| 20260505061530 | 58 | 247 | 2.0 | 5.0 | 0.00 | 0.00 | 0.00 | 48 | 1016.6 |
| 20260505061010 | 58 | 253 | 3.0 | 5.0 | 0.00 | 0.00 | 0.00 | 47 | 1016.6 |
| 20260505060510 | 58 | 245 | 3.0 | 4.0 | 0.00 | 0.00 | 0.00 | 47 | 1016.6 |
| 20260505060050 | 58 | 244 | 3.0 | 4.0 | 0.00 | 0.00 | 0.00 | 47 | 1016.4 |
| 20260505055512 | 58 | 250 | 2.0 | 4.0 | 0.00 | 0.00 | 0.00 | 47 | 1016.5 |
| 20260505055011 | 58 | 248 | 3.0 | 5.0 | 0.00 | 0.00 | 0.00 | 47 | 1016.5 |
| 20260505054531 | 58 | 242 | 3.0 | 5.0 | 0.00 | 0.00 | 0.00 | 47 | 1016.4 |
| 20260505054017 | 58 | 254 | 3.0 | 5.0 | 0.00 | 0.00 | 0.00 | 46 | 1016.4 |
| 20260505053508 | 58 | 244 | 3.0 | 4.0 | 0.00 | 0.00 | 0.00 | 46 | 1016.4 |
| 20260505053027 | 58 | 262 | 2.0 | 4.0 | 0.00 | 0.00 | 0.00 | 45 | 1016.4 |
| 20260505052512 | 59 | 247 | 2.0 | 4.0 | 0.00 | 0.00 | 0.00 | 45 | 1016.2 |
| 20260505052012 | 58 | 246 | 3.0 | 4.0 | 0.00 | 0.00 | 0.00 | 45 | 1016.2 |
| 20260505051528 | 58 | 259 | 2.0 | 5.0 | 0.00 | 0.00 | 0.00 | 45 | 1016.3 |
| 20260505051010 | 59 | 248 | 3.0 | 5.0 | 0.00 | 0.00 | 0.00 | 45 | 1016.3 |
| 20260505050510 | 59 | 215 | 2.0 | 4.0 | 0.00 | 0.00 | 0.00 | 45 | 1016.1 |
| 20260505041545 | 60 | 321 | 0.0 | 3.0 | 0.00 | 0.00 | 0.00 | 42 | 1015.9 |
| 20260505041012 | 60 | 321 | 1.0 | 3.0 | 0.00 | 0.00 | 0.00 | 42 | 1015.9 |
| 20260505040513 | 60 | 5 | 0.0 | 2.0 | 0.00 | 0.00 | 0.00 | 41 | 1015.9 |
| 20260505040033 | 60 | 5 | 0.0 | 2.0 | 0.00 | 0.00 | 0.00 | 42 | 1015.8 |
| 20260505035509 | 60 | 5 | 0.0 | 2.0 | 0.00 | 0.00 | 0.00 | 42 | 1015.8 |
| 20260505035011 | 60 | 5 | 1.0 | 2.0 | 0.00 | 0.00 | 0.00 | 42 | 1015.8 |
| 20260505034529 | 60 | 20 | 0.0 | 2.0 | 0.00 | 0.00 | 0.00 | 42 | 1015.8 |
| 20260505034013 | 60 | 20 | 0.0 | 2.0 | 0.00 | 0.00 | 0.00 | 42 | 1015.7 |